STARLINK-2187, 48562

Orbit data source: Space-Track

STARLINK-2187, 48562 is a payload satellite owned by SpaceX/Seattle (US) in LEO that was launched on Sat, 15 May 2021 UTC via an FALCON 9 launch vehicle from the Air Force Eastern Test Range (AFETR). Payload-class satellites include a variety of spacecraft equipped with specific instruments for various scientific and technological missions. These include communications satellites like Starlink; space stations such as the ISS; scientific satellites like the Hubble; Earth observation satellites from companies like Planet Labs, Umbra, and HawkEye 360; GPS; miniature CubeSats for education and research; and military/defense satellites.

Loading next visibility...
Identifier
48562, 2021-041K
Orbit
LEO
Country
Flag of USUS
Related business
Manufacturer
SpaceX/Seattle
Mission
Partially operational Commercial Communications
Bus & Motor
STARLINK, Unknown motor
Mass
260 kg wet, ~248 kg dry
Launch date (UTC)
2021-05-15 (5 years ago)
Launch vehicle
FALCON 9
Launch site
Air Force Eastern Test Range (AFETR)
Object type
Payload
Rocket body
Debris
Shape & HBR
Box + 1 Pan, 10.1 m
Radar Cross Section
13.562 m², Large (>1 m²)

Expand to show TLE details & history
Last TLE update: 2 days ago

TLE from 2 days ago
0 STARLINK-2187
1 48562U 21041K   26171.41668980  .01529361  00000-0  22456-1 0  9999
2 48562  53.1554   0.4054 0001551 114.7707 341.2098 15.52132308  5936
Epoch: 2026-06-20T10:00Z
TLE epoch observation values (Epoch: 2026-06-20T10:00:01.998Z)
Latitude
52.89525°
Longitude
41.67702°
Altitude
415.973 km
Speed
7.668 km/s
True Right ascension
06h 41m 16s
True Declination
52° 43' 17"
Sunlit
Object was in daylight at epoch
Visualization orbit readout
Latitude
Unknown
Longitude
Unknown
Altitude
Unknown
Speed
Unknown
Apparent Right ascension
Unknown
Apparent Declination
Unknown
Sunlit
N/A
Visualization observer readout
Local Sidereal Time
21:52:14
Azimuth
Unknown
Elevation
Unknown
Doppler factor
Unknown
Orbital elements
Apogee altitude
411.814 km
Perigee altitude
409.708 km
Semi-major axis
6,788.898 km
Eccentricity
0.00016
Inclination
53.1554°
RAAN
0.4054°
Arg. of periapsis
114.7707°
True anomaly
341.20407°
Mean anomaly
341.2098°
Eccentric anomaly
341.20694°
Mean motion
3.88011 °/min
Orbital period
92.78 mins
BSTAR
0.022456
Loading maneuver chart data...
Computing Atmospheric mass density...

Documentation

Showing up to 5 results
|